Location: Central Coast
(33.3208°S, 151.2336°E)
Time: 07:29:44
(UTC+10:00)

Vanguard 2 Rocket - All Passes

Search period start: 18 July 2018 00:00
Search period end: 28 July 2018 00:00
Orbit: 554 x 3327 km, 32.9° (Epoch: 17 July)

Date Brightness Start Highest point End Pass type
(mag) Time Alt. Az. Time Alt. Az. Time Alt. Az.
18 Jul - 10:15:26 10° N 10:27:54 20° NE 10:38:57 10° ENE daylight
18 Jul - 12:26:38 10° NW 12:44:51 47° NNE 12:57:28 10° E daylight
18 Jul - 14:44:07 10° WNW 15:01:28 77° NNE 15:11:21 10° E daylight
18 Jul - 17:03:54 10° W 17:16:56 88° N 17:23:57 10° E daylight
18 Jul - 19:22:23 10° W 19:30:36 49° NNW 19:35:34 10° NE visible
19 Jul - 09:19:22 10° NNE 09:26:32 13° NE 09:33:26 10° ENE daylight
19 Jul - 11:25:48 10° NNW 11:43:22 38° NNE 11:56:58 10° E daylight
19 Jul - 13:41:39 10° WNW 14:00:24 69° NNE 14:11:55 10° E daylight
19 Jul - 16:01:13 10° W 16:16:37 88° N 16:24:59 10° E daylight
19 Jul - 18:20:37 10° W 18:31:12 68° NNW 18:37:06 10° ENE visible
19 Jul - 20:39:05 10° W 20:43:26 18° NW 20:46:46 10° N visible
20 Jul - 10:25:54 10° NNW 10:41:51 30° NE 10:55:37 10° E daylight
20 Jul - 12:39:38 10° NW 12:59:00 60° NNE 13:12:09 10° E daylight
20 Jul - 14:58:20 10° WNW 15:15:53 85° N 15:25:49 10° E daylight
20 Jul - 17:18:22 10° W 17:31:22 81° NNW 17:38:23 10° ENE visible
20 Jul - 19:37:03 10° W 19:44:33 33° NW 19:49:20 10° NNE visible
21 Jul - 09:27:15 10° N 09:40:25 22° NE 09:52:52 10° E daylight
21 Jul - 11:38:16 10° NW 11:57:23 51° NNE 12:11:56 10° E daylight
21 Jul - 13:55:33 10° WNW 14:14:43 79° NNE 14:26:23 10° E daylight
21 Jul - 16:15:41 10° W 16:31:05 88° N 16:39:27 10° E daylight
21 Jul - 18:35:05 10° W 18:45:20 52° NNW 18:51:12 10° NE visible
22 Jul - 08:31:06 10° NNE 08:39:10 14° NE 08:47:15 10° ENE daylight
22 Jul - 10:37:43 10° NNW 10:55:41 41° NE 11:11:04 10° E daylight
22 Jul - 12:53:11 10° WNW 13:13:12 72° NNE 13:26:41 10° E daylight
22 Jul - 15:12:44 10° W 15:30:20 89° N 15:40:17 10° E daylight
22 Jul - 17:32:47 10° W 17:45:40 69° NNW 17:52:42 10° ENE visible
22 Jul - 19:52:12 10° W 19:58:12 21° NW 20:02:27 10° N visible
23 Jul - 09:38:06 10° NNW 09:54:06 32° NE 10:09:18 10° E daylight
23 Jul - 11:51:24 10° NW 12:11:25 63° NNE 12:26:33 10° E daylight
23 Jul - 14:09:47 10° WNW 14:29:07 86° N 14:40:51 10° E daylight
23 Jul - 16:30:08 10° W 16:45:30 81° NNW 16:53:52 10° ENE daylight
23 Jul - 18:49:42 10° W 18:59:11 37° NW 19:04:57 10° NNE visible
24 Jul - 08:39:44 10° N 08:52:46 23° NE 09:06:08 10° E daylight
24 Jul - 10:50:22 10° NW 11:09:32 53° NNE 11:25:56 10° E daylight
24 Jul - 13:07:09 10° WNW 13:27:29 81° NNE 13:41:08 10° E daylight
24 Jul - 15:27:12 10° W 15:44:48 87° N 15:54:45 10° E daylight
24 Jul - 17:47:14 10° W 17:59:45 54° NNW 18:06:45 10° NE visible
24 Jul - 20:08:49 10° WNW 20:11:37 12° NW 20:14:02 10° NNW visible
25 Jul - 07:43:47 10° NNE 07:51:45 14° NE 08:00:08 10° ENE daylight
25 Jul - 09:50:10 10° NNW 10:07:45 43° NE 10:24:38 10° E daylight
25 Jul - 12:05:02 10° WNW 12:25:33 74° NNE 12:41:02 10° E daylight
25 Jul - 14:24:12 10° W 14:43:35 89° N 14:55:19 10° E daylight
25 Jul - 16:44:33 10° W 16:59:46 70° NNW 17:08:08 10° ENE daylight
25 Jul - 19:04:45 10° W 19:12:45 25° NW 19:18:06 10° N visible
26 Jul - 08:50:54 10° NNW 09:06:14 33° NE 09:22:25 10° E daylight
26 Jul - 11:03:38 10° NW 11:23:27 65° NNE 11:40:30 10° ESE daylight
26 Jul - 13:21:24 10° WNW 13:41:53 87° N 13:55:35 10° E daylight
26 Jul - 15:41:38 10° W 15:59:12 81° NNW 16:09:08 10° ENE daylight
26 Jul - 18:01:50 10° W 18:13:32 40° NW 18:20:28 10° NNE visible
27 Jul - 07:52:51 10° N 08:05:07 23° NE 08:18:47 10° E daylight
27 Jul - 10:02:59 10° NW 10:21:26 55° NNE 10:39:26 10° ESE daylight
27 Jul - 12:19:04 10° WNW 12:39:48 82° NNE 12:55:29 10° E daylight
27 Jul - 14:38:39 10° W 14:58:03 87° N 15:09:47 10° E daylight
27 Jul - 16:58:59 10° WSW 17:13:47 57° NNW 17:22:10 10° NE daylight
27 Jul - 19:20:53 10° W 19:26:04 15° NW 19:30:07 10° NNW visible
